Current Version              Previous Version:    01  02  03  04  05  06  07  08  09  10  11  12  13  14  15  16  17  18  19  20  21  22  23  24  25  26  27  28  29  30  
   31  32  33  34  35  36  37  38  39  40  41  42  43  44  45  46  47  48  49  50  51  52  53  54  55  56  57  58  59  60  

[Printable]
838
ASUS44 KFWD 211810
RWRTX
NORTH TEXAS HOURLY WEATHER ROUNDUP
NATIONAL WEATHER SERVICE FORT WORTH TX
1200 PM CST SUN DEC 21 2014

NOTE: "FAIR" INDICATES FEW OR NO CLOUDS BELOW 12,000 FEET WITH NO
SIGNIFICANT WEATHER AND/OR OBSTRUCTIONS TO VISIBILITY.

TXZ118-119-211900-
DALLAS/FORT WORTH METROPLEX

CITY           SKY/WX    TMP DP  RH WIND       PRES   REMARKS
DFW AIRPORT    CLOUDY    50  44  80 S16       30.01F
6HR MIN TEMP:  47; 6HR MAX TEMP:  50; 6HR PCP: TRACE;

DALLAS LOVE    CLOUDY    51  44  77 S13       30.03F
6HR MIN TEMP:  48; 6HR MAX TEMP:  51;

FTW MEACHAM    CLOUDY    51  45  79 SE17      29.99F HAZE
6HR MIN TEMP:  48; 6HR MAX TEMP:  52;

DAL-EXECUTIVE  CLOUDY    51  44  77 S12       30.02F
6HR MIN TEMP:  48; 6HR MAX TEMP:  51;

FTW-ALLIANCE   CLOUDY    49  44  83 S13       30.00F
6HR MIN TEMP:  47; 6HR MAX TEMP:  49;

FTW-SPINKS     CLOUDY    50  45  81 S14       30.03F HAZE
ARLINGTON      CLOUDY    51  43  74 S14       30.02F
6HR MIN TEMP:  48; 6HR MAX TEMP:  51;

GRAND PRAIRIE  CLOUDY    50  46  87 S12       30.04F
MESQUITE       CLOUDY    48  45  87 SE12      30.05F
LANCASTER      CLOUDY    49  43  79 S15       30.05F
6HR MIN TEMP:  46; 6HR MAX TEMP:  49;

$$

TXZ091>094-102>105-117-120-121-131>134-211900-
NORTH CENTRAL TEXAS

CITY           SKY/WX    TMP DP  RH WIND       PRES   REMARKS
SHRMAN/DENISON CLOUDY    50  46  85 S13       30.01F
6HR MIN TEMP:  46; 6HR MAX TEMP:  50; 6HR PCP:  0.01;

GAINESVILLE    CLOUDY    48  43  84 SE16      30.00F
6HR MIN TEMP:  46; 6HR MAX TEMP:  48;

BOWIE          CLOUDY    47  46  95 S12       29.95F FOG
6HR MIN TEMP:  45; 6HR MAX TEMP:  47;

BRIDGEPORT     CLOUDY    49  46  89 SE10      30.00F
6HR MIN TEMP:  47; 6HR MAX TEMP:  49;

DECATUR        CLOUDY    47  46  96 S13       29.98F FOG
6HR MIN TEMP:  45; 6HR MAX TEMP:  47;

DENTON         CLOUDY    49  44  83 S12       30.01F
6HR MIN TEMP:  47; 6HR MAX TEMP:  49;

MCKINNEY       CLOUDY    50  44  80 S13       30.03F
6HR MIN TEMP:  46; 6HR MAX TEMP:  50;

GREENVILLE     CLOUDY    48  43  81 S12       30.04F
ROCKWALL       CLOUDY    49  45  87 S10       30.03F
6HR MIN TEMP:  46; 6HR MAX TEMP:  49;

TERRELL        CLOUDY    51  45  79 S13       30.05F
6HR MIN TEMP:  48; 6HR MAX TEMP:  51;

WAXAHACHIE     CLOUDY    49  47  92 SE10G18   30.04F
6HR MIN TEMP:  46; 6HR MAX TEMP:  49;

CLEBURNE       CLOUDY    50  48  93 S12       30.02F
GRANBURY       CLOUDY    52  46  80 S12       30.01F
6HR MIN TEMP:  49; 6HR MAX TEMP:  52;

$$

TXZ083>090-098>101-113>116-127>130-139>142-154-155-211900-
WESTERN NORTH TEXAS

CITY           SKY/WX    TMP DP  RH WIND       PRES   REMARKS
WICHITA FALLS  CLOUDY    49  44  83 S16       29.91F
6HR MIN TEMP:  44; 6HR MAX TEMP:  49;

WF-KICKAPOO    CLOUDY    49  44  84 S12G17    29.94F
6HR MIN TEMP:  45; 6HR MAX TEMP:  49;

VERNON         CLOUDY    54  42  65 S20       29.86F
6HR MIN TEMP:  32; 6HR MAX TEMP:  54;

ABILENE        MOSUNNY   54  43  66 S23       29.92F
6HR MIN TEMP:  47; 6HR MAX TEMP:  54;

BRECKENRIDGE   CLOUDY    53  44  72 S16       29.94F
6HR MIN TEMP:  48; 6HR MAX TEMP:  53;

GRAHAM         CLOUDY    49  46  89 SE12      29.93F
6HR MIN TEMP:  46; 6HR MAX TEMP:  49;

MINERAL WELLS  CLOUDY    50  44  80 S10       29.96F
6HR MIN TEMP:  47; 6HR MAX TEMP:  50;

STEPHENVILLE   CLOUDY    50  44  79 S9G17     30.01F
6HR MIN TEMP:  47; 6HR MAX TEMP:  50;

COMANCHE       CLOUDY    51  46  82 S17G25    29.99F
6HR MIN TEMP:  46; 6HR MAX TEMP:  51;

BROWNWOOD      CLOUDY    50  45  81 S14G21    29.98F
COLEMAN        CLOUDY    51  46  83 SW13G21   29.98F
6HR MIN TEMP:  46; 6HR MAX TEMP:  51;

BRADY          CLOUDY    50  45  81 S13       29.99F
$$

TXZ143>147-156>162-174-175-211900-
CENTRAL TEXAS

CITY           SKY/WX    TMP DP  RH WIND       PRES   REMARKS
WACO           CLOUDY    52  45  77 S12       30.05F
6HR MIN TEMP:  47; 6HR MAX TEMP:  52;

WACO-TSTC      CLOUDY    52  46  82 S12G17    30.05F
WACO-MCGREGOR  CLOUDY    52  45  76 S13       30.05F
6HR MIN TEMP:  46; 6HR MAX TEMP:  52;

HILLSBORO      CLOUDY    51  45  80 SE14      30.03F
6HR MIN TEMP:  47; 6HR MAX TEMP:  51;

CORSICANA      CLOUDY    50  46  86 S8        30.07F
6HR MIN TEMP:  46; 6HR MAX TEMP:  50;

MEXIA          CLOUDY    49  46  91 SW8       30.07F
6HR MIN TEMP:  46; 6HR MAX TEMP:  49;

HEARNE         CLOUDY    51  47  86 SE7       30.09F
6HR MIN TEMP:  47; 6HR MAX TEMP:  51;

CAMERON        CLOUDY    51  47  86 S3        30.07F
6HR MIN TEMP:  47; 6HR MAX TEMP:  51;

TEMPLE         CLOUDY    52  41  66 S14       30.03F
6HR MIN TEMP:  46; 6HR MAX TEMP:  52;

KILLEEN        CLOUDY    51  46  82 S12       30.03F
6HR MIN TEMP:  47; 6HR MAX TEMP:  52;

KILLEEN-SKYLRK CLOUDY    54  43  66 S13       30.00F
6HR MIN TEMP:  48; 6HR MAX TEMP:  54;

FORT HOOD      CLOUDY    53  46  76 S10       30.02F
6HR MIN TEMP:  48; 6HR MAX TEMP:  53;

GATESVILLE     PTSUNNY   52  45  76 S8        30.05F
HAMILTON       CLOUDY    50  47  88 S13       30.03F
6HR MIN TEMP:  47; 6HR MAX TEMP:  51;

$$

TXZ095>097-106>112-122>126-135>138-148>153-164>167-211900-
EAST TEXAS

CITY           SKY/WX    TMP DP  RH WIND       PRES   REMARKS
PARIS          CLOUDY    48  41  76 S16       30.06F
6HR MIN TEMP:  45; 6HR MAX TEMP:  50;

SULPHUR SPRNGS CLOUDY    50  43  78 S10       30.08F
6HR MIN TEMP:  46; 6HR MAX TEMP:  50;

MOUNT PLEASANT CLOUDY    49  43  79 S6        30.10F
6HR MIN TEMP:  43; 6HR MAX TEMP:  49;

MINEOLA        CLOUDY    48  46  93 SE7       30.09F
TYLER          CLOUDY    50  43  77 S9        30.08F
6HR MIN TEMP:  44; 6HR MAX TEMP:  50;

LONGVIEW       CLOUDY    47  42  83 S5        30.09F
6HR MIN TEMP:  40; 6HR MAX TEMP:  47;

MARSHALL       PTSUNNY   53  46  77 S7        30.11F
6HR MIN TEMP:  40; 6HR MAX TEMP:  53;

ATHENS         CLOUDY    48  43  81 S7        30.06F
PALESTINE      CLOUDY    51  46  84 S3        30.09F
JACKSONVILLE   CLOUDY    48  46  91 SE6       30.10F
HENDERSON      CLOUDY    46  44  90 CALM      30.10F
6HR MIN TEMP:  40; 6HR MAX TEMP:  46;

NACOGDOCHES    CLOUDY    48  43  81 CALM      30.10F
6HR MIN TEMP:  37; 6HR MAX TEMP:  48;

LUFKIN         CLOUDY    53  44  71 VRB3      30.09F
6HR MIN TEMP:  45; 6HR MAX TEMP:  53;

$$

SUPPLEMENTAL OBSERVATIONS (CENTRAL)

CITY           SKY/WX    TMP DP  RH WIND       PRES   REMARKS
CADDO GRASSLND   N/A     48  41  76 S10         N/A
PAT MAYSE LAKE   N/A     46  41  81 SE13        N/A
MCGREGOR         N/A     54  45  71 S15         N/A
TEMPLE           N/A     52  45  76 SE13        N/A
$$

SUPPLEMENTAL OBSERVATIONS (WEST)

CITY           SKY/WX    TMP DP  RH WIND       PRES   REMARKS
MILLERS CREEK    N/A     55  50  82 S18G25      N/A
LBJ GRASSLAND    N/A     46  43  87 SE10        N/A
GRANBURY         N/A     52  46  82 S13         N/A
HAMBY            N/A     55  45  67 S20G28      N/A
$$

SUPPLEMENTAL OBSERVATIONS (EAST)

CITY           SKY/WX    TMP DP  RH WIND       PRES   REMARKS
CLARKSVILLE      N/A     48  39  71 S13         N/A
TEXARKANA        N/A     48  39  71 SE3         N/A
LINDEN           N/A     52  41  66 SE3         N/A
GILMER           N/A     48  41  76 S7          N/A
HENDERSON        N/A     46  41  81 SW5         N/A